Temperature
16 16 16 15 15 15 15 15 15 16 15 15 15 15 15 15 15 15 15 15 15 15 15 15 15 15 15 15 15 15 15 15 15 15 15 16 15 15 15 15 16 16 16
15 16 15 15 15 15 15 15 15 15 15 15 15 15 15 15 15 15 15 15 15 15 15 15 15 15 15 15 15 15 15 15 15 15 15 15 15 15 15 15 15 15 15
15 15 15 15 15 15 15 15 15 15 15 15 15 15 15 15 15 15 15 15 15 15 15 15 15 15 15 15 15 15 15 15 14 14 15 15 15 15 15 15 15 15 15
15 15 15 15 15 15 15 15 15 15 15 15 15 15 14 15 14 14 14 14 14 14 15 15 15 15 14 14 14 14 14 14 14 14 14 15 15 15 15 15 15 15 15
15 15 15 15 15 15 15 15 15 15 15 15 15 14 14 14 14 14 14 14 14 14 14 14 14 14 14 14 14 14 14 14 14 14 14 14 15 14 14 14 15 15 15
15 15 15 15 15 15 15 15 15 15 15 15 14 14 14 14 14 14 14 14 14 14 14 14 14 14 14 14 14 14 14 14 14 14 14 14 14 14 14 14 14 14 14
15 15 15 15 15 15 15 15 15 15 14 14 14 14 14 14 14 14 14 14 14 14 14 14 14 14 14 14 14 14 13 13 14 14 14 14 14 14 14 14 14 14 14
15 15 15 15 15 15 15 15 15 15 14 14 14 14 14 14 14 14 14 14 14 14 14 14 14 14 14 14 14 14 13 13 13 14 14 14 14 14 14 14 13 13 14
15 15 15 15 15 15 15 15 15 15 15 14 14 14 14 14 13 13 13 14 14 14 14 14 14 14 14 14 14 14 13 13 13 13 13 13 13 14 13 13 13 13 13
15 15 15 15 15 15 15 15 15 15 15 14 14 14 14 14 14 13 13 13 13 13 13 13 13 13 13 14 14 13 13 13 13 13 13 13 13 13 13 13 13 13 13
15 15 15 15 15 15 15 15 15 14 14 14 14 14 14 14 14 14 13 13 13 13 13 13 13 13 13 13 13 13 13 13 13 13 13 13 13 13 13 13 13 13 13
15 15 15 15 15 15 15 14 14 14 14 14 14 14 14 14 14 14 14 13 13 13 13 13 13 13 13 13 13 13 13 13 13 13 13 13 13 13 13 13 13 13 12
15 15 15 15 15 15 15 14 14 14 14 14 14 14 14 14 14 14 14 14 13 13 13 13 13 13 13 13 13 13 13 13 13 13 13 13 13 13 13 12 12 12 12
15 15 15 15 15 15 14 14 14 14 14 14 14 14 14 14 14 14 14 14 14 13 13 13 13 13 13 13 13 13 13 13 13 13 13 13 13 13 13 13 13 12 12
15 15 15 15 15 15 14 14 14 14 14 14 14 14 14 14 14 14 14 14 14 13 13 13 13 13 12 12 12 13 12 12 13 13 13 13 13 13 12 12 12 12 12
15 15 15 15 15 15 15 15 14 14 14 14 14 14 14 14 14 14 14 14 14 14 13 13 13 13 12 12 12 12 12 12 12 12 12 12 12 12 12 12 12 12 12
15 15 15 15 15 15 15 15 15 14 14 14 14 14 14 14 14 14 14 14 14 13 13 13 13 12 12 12 12 12 12 12 12 12 12 12 12 12 12 12 12 12 12
15 15 15 15 15 15 15 15 14 14 14 14 14 14 14 14 14 14 14 14 13 13 13 13 13 12 12 12 12 12 12 12 12 12 12 12 12 12 12 12 11 11 11
15 15 15 15 15 15 15 14 14 14 14 14 14 14 14 14 14 14 14 14 13 13 13 13 13 12 12 12 12 12 12 12 12 12 12 11 11 11 11 11 11 11 11
15 15 15 15 15 15 15 14 14 14 14 14 14 14 14 14 14 14 14 13 13 13 13 13 13 12 12 12 12 12 12 12 11 11 11 11 11 11 11 11 11 11 11
15 15 15 15 15 15 15 14 14 14 14 14 14 14 14 14 14 13 13 13 13 13 13 13 12 12 12 12 12 12 11 11 11 11 11 11 11 11 11 10 10 10 10
15 15 15 15 15 15 15 14 14 14 14 14 14 14 14 14 13 13 13 13 13 13 13 12 12 12 12 12 12 11 11 11 11 11 11 11 10 10 10 10 10 10 10
15 15 15 15 15 15 15 14 14 14 14 14 14 14 14 14 13 13 13 13 13 13 12 12 12 12 12 12 11 11 11 11 11 10 11 11 10 10 10 10 9 9 9
15 15 15 15 15 15 14 14 14 14 14 14 14 13 13 13 13 13 13 13 13 12 12 12 12 12 11 11 11 11 11 11 10 10 10 10 10 10 10 9 9 9 9
15 15 15 15 15 15 14 14 14 14 14 14 14 13 13 13 13 13 13 13 13 12 12 12 12 11 11 11 11 11 11 11 10 10 10 10 10 10 9 9 9 9 8
15 15 15 15 14 14 14 14 14 14 14 14 14 13 13 13 13 13 13 12 12 12 12 12 12 11 11 11 11 11 10 10 10 10 10 9 9 9 9 9 8 8 8
Wind_Speed
3 3 4 5 5 5 5 5 6 6 7 7 8 8 7 7 8 8 8 10 10 10 10 10 10 10 10 10 9 10 9 9 9 10 10 11 10 11 11 11 11 11 11
4 4 3 4 4 5 6 6 6 6 5 6 7 7 7 7 8 8 8 9 11 12 12 12 12 12 11 11 10 10 10 9 9 9 10 10 10 10 11 11 11 11 11
5 4 3 3 4 6 7 7 7 6 5 6 6 7 7 7 7 8 9 9 9 12 13 12 12 12 12 11 11 10 10 10 10 10 10 10 10 10 11 11 11 11 11
5 5 3 3 5 6 6 5 4 5 5 5 5 5 5 6 7 8 8 9 9 9 11 13 13 13 12 12 11 10 10 10 10 10 10 10 10 11 11 11 11 11 12
5 5 4 4 6 5 4 4 4 4 4 5 5 5 5 5 6 7 8 9 9 10 10 12 13 14 13 13 12 11 10 10 10 10 10 10 10 11 11 11 12 12 12
5 6 5 4 5 4 4 4 5 4 4 4 6 6 5 5 5 6 6 8 9 10 10 10 10 11 13 13 13 12 11 11 11 11 10 11 10 10 11 11 11 12 12
5 5 4 3 4 4 4 5 5 5 3 3 4 4 4 5 5 5 6 6 7 8 9 9 9 9 10 13 14 13 13 12 11 11 11 11 10 10 10 10 11 11 12
5 5 4 3 4 4 4 4 4 3 2 1 3 3 2 4 4 5 4 5 5 7 7 8 9 9 9 10 12 14 13 12 11 11 11 10 10 10 10 10 10 11 12
4 5 5 4 4 4 4 4 4 4 3 1 2 3 3 1 1 3 4 4 4 4 5 6 8 8 8 9 10 12 13 12 12 11 11 11 11 11 10 9 10 10 11
3 4 5 5 4 3 4 4 4 3 4 2 1 2 2 3 3 1 3 3 4 4 4 5 6 7 8 8 9 11 12 13 12 12 11 11 11 11 10 9 9 10 11
2 3 4 4 3 3 3 3 3 3 3 3 2 2 2 2 2 3 0 2 3 3 3 4 5 6 8 8 9 10 11 12 12 12 11 11 11 11 11 10 10 11 11
1 1 2 3 3 3 3 3 3 4 3 3 2 2 2 2 2 3 2 0 1 2 2 4 4 5 7 8 8 10 11 11 11 12 12 12 11 11 11 11 10 11 11
0 0 1 2 2 2 3 3 3 3 3 3 3 2 2 2 3 3 4 2 0 2 2 2 3 4 5 7 7 9 10 11 11 11 11 12 12 11 11 11 11 11 11
1 1 2 2 2 3 3 3 2 2 2 2 2 2 2 2 3 3 4 4 2 1 2 2 2 3 4 5 6 8 8 10 10 11 11 11 11 11 12 12 12 12 12
1 2 3 3 3 3 3 3 2 2 3 2 2 2 2 1 2 2 3 3 4 2 1 2 2 2 3 4 6 6 7 9 10 10 9 9 10 10 11 11 11 11 12
1 3 3 3 3 2 3 3 2 2 3 2 1 2 2 1 2 2 3 2 3 4 2 1 1 2 2 3 5 6 6 8 9 10 9 9 9 9 9 9 9 9 10
2 3 3 3 3 3 3 3 3 3 3 2 2 2 2 2 3 2 3 3 2 3 2 1 1 1 2 2 4 5 5 6 7 9 9 9 9 8 8 8 8 8 9
2 3 3 3 3 3 3 3 3 3 3 2 2 3 2 3 3 3 3 3 2 2 3 1 1 2 2 1 2 3 4 4 5 7 8 8 8 8 8 7 8 7 8
2 3 3 3 3 3 3 3 3 3 3 2 2 3 3 4 3 2 3 3 2 2 2 2 0 1 1 2 2 2 3 4 4 5 6 7 7 8 7 7 7 6 6
3 3 3 3 3 3 3 3 3 3 2 2 2 2 3 4 4 4 3 3 3 3 3 3 1 1 1 1 1 2 2 3 3 4 5 5 6 7 7 7 7 6 6
4 4 3 3 2 3 3 4 4 3 3 2 1 1 2 4 5 5 4 4 4 3 3 2 1 1 1 1 1 1 1 2 2 2 3 4 4 5 6 6 6 6 6
3 4 4 4 3 2 4 6 5 4 3 3 2 1 1 2 4 5 6 7 7 5 4 3 1 1 2 2 1 0 0 1 2 2 2 3 3 3 5 5 6 6 6
4 4 4 4 3 3 5 6 7 5 3 3 2 2 1 2 3 3 4 4 4 4 6 5 4 3 3 3 2 1 1 1 1 2 1 2 2 2 4 5 6 6 6
4 4 4 4 3 3 5 5 7 5 3 2 2 2 2 2 3 5 4 4 2 1 3 3 3 3 3 3 4 3 3 1 1 1 1 1 2 2 3 4 5 6 7
4 4 3 4 4 4 6 7 7 4 3 2 2 2 3 3 4 7 5 4 1 0 1 3 3 2 1 2 4 3 2 1 1 1 0 1 1 2 2 2 5 6 6
5 4 4 4 4 4 6 8 8 4 3 2 1 2 3 4 4 7 5 5 3 2 1 2 1 1 1 1 3 3 3 2 1 1 1 1 1 1 2 2 3 5 4
Wind_Direction
72 69 59 56 60 64 68 74 76 74 71 70 70 68 60 54 49 44 37 43 46 45 47 52 54 54 56 58 56 50 44 43 41 38 37 39 39 35 32 30 29 28 25
97 86 72 69 67 73 79 83 85 82 75 75 68 64 59 52 47 42 38 38 41 43 46 50 52 52 52 54 55 51 46 42 40 41 41 41 39 36 32 30 29 28 28
111 104 90 78 81 91 93 87 82 79 77 73 65 59 56 51 49 46 41 39 38 41 44 47 48 47 47 48 49 47 44 41 41 40 40 40 39 36 33 31 31 32 32
123 112 101 93 98 99 95 91 83 81 75 73 65 52 48 48 46 46 45 41 41 38 37 43 43 42 42 42 43 43 42 43 43 43 44 42 40 37 37 35 34 36 36
122 112 105 108 108 99 94 102 85 91 91 83 75 60 46 42 38 43 42 41 42 42 40 38 39 39 38 36 34 36 39 42 43 45 44 43 41 39 39 38 37 37 38
118 111 106 107 109 103 92 95 94 78 87 88 81 66 50 44 42 37 36 38 40 43 41 37 33 29 32 32 31 31 36 41 43 42 41 41 41 40 40 40 40 38 39
124 119 115 107 108 111 119 120 111 95 83 94 84 61 40 42 45 35 36 39 37 37 39 37 33 29 22 25 28 31 34 36 40 42 41 40 41 41 41 44 44 43 41
131 134 132 131 121 120 120 126 123 116 109 92 108 96 45 17 20 28 28 38 33 33 35 35 33 30 25 23 24 29 29 30 35 39 39 40 41 42 44 48 48 47 45
132 137 140 136 135 139 149 153 148 144 150 87 83 128 130 174 352 5 23 31 27 27 22 25 28 25 23 22 21 24 26 28 32 36 39 40 42 43 45 49 50 49 47
117 136 144 141 145 147 156 170 161 152 143 143 76 58 109 144 136 44 358 9 21 23 13 20 18 19 20 20 21 25 28 28 32 36 37 40 42 44 46 50 53 52 50
90 126 141 143 146 154 164 166 155 155 149 151 149 127 89 74 94 132 82 343 1 1 7 13 16 16 18 18 20 26 31 32 33 35 36 39 41 43 45 49 53 51 49
44 97 136 142 148 151 159 168 163 158 157 147 146 147 152 148 156 142 152 185 336 327 352 14 18 12 17 17 19 27 34 35 35 36 38 40 41 41 44 47 48 47 48
57 205 137 135 141 153 156 149 142 153 159 155 162 165 164 164 151 144 138 148 93 326 345 0 3 10 16 18 16 24 35 37 38 40 41 41 40 41 42 44 45 45 45
204 171 141 132 130 132 137 132 121 138 137 151 166 163 150 154 151 152 152 145 115 6 2 330 338 6 11 17 15 25 31 38 40 42 43 43 43 43 45 45 44 44 44
166 138 131 128 125 128 137 127 116 121 120 123 142 143 131 132 138 140 141 145 144 153 297 308 323 336 360 20 22 26 26 32 36 38 42 44 45 46 45 45 44 43 43
133 128 127 129 121 120 126 118 113 114 113 110 128 127 121 126 122 120 127 123 132 150 178 274 276 294 349 22 25 25 20 23 31 35 39 43 45 44 42 42 42 41 42
148 146 145 143 138 131 121 124 128 120 112 101 108 127 125 125 124 119 112 112 115 128 154 283 319 339 11 12 13 18 18 19 19 29 35 39 41 40 38 38 37 37 37
172 163 148 148 145 137 135 141 142 136 136 137 141 128 131 128 120 125 124 120 127 131 145 163 341 353 354 348 356 5 10 14 12 20 27 33 36 36 35 34 33 31 31
169 161 154 162 161 158 151 153 149 144 147 157 155 151 156 142 140 139 132 127 124 113 114 136 125 2 356 4 11 5 13 8 7 9 17 22 27 28 27 26 26 27 30
166 164 161 165 165 164 160 156 148 147 143 144 150 157 160 161 167 159 147 139 127 111 105 108 91 28 0 348 30 15 360 0 360 8 10 11 13 15 17 22 23 23 27
172 163 154 153 157 161 175 168 162 158 156 152 143 151 158 168 173 163 153 152 140 128 120 112 103 52 359 3 308 291 297 326 337 360 355 3 7 8 6 11 16 22 29
163 155 163 165 174 190 181 174 163 158 162 161 165 169 154 154 166 156 149 147 147 146 154 146 150 177 240 228 212 184 181 14 324 346 10 343 9 353 341 355 11 24 29
168 168 176 174 185 203 187 175 166 153 152 162 167 162 138 129 141 138 135 137 142 144 152 156 162 200 210 214 180 168 177 174 234 310 31 327 355 348 334 357 15 23 25
173 178 183 188 190 211 193 174 160 148 143 156 167 170 161 157 147 142 128 116 115 125 158 156 176 200 201 191 183 186 188 179 281 346 93 302 328 323 340 347 11 25 28
178 183 184 186 192 216 194 177 156 143 148 164 168 165 171 171 162 150 139 141 137 289 144 165 178 194 188 158 151 113 100 102 305 316 33 227 299 317 331 340 352 11 20
184 181 185 193 197 210 193 181 166 152 159 172 168 180 179 178 172 161 158 162 182 228 149 96 71 33 48 85 148 158 165 157 189 286 291 212 285 334 323 324 349 355 0
Height
1546 1546 1546 1546 1546 1547 1547 1547 1548 1548 1548 1549 1549 1549 1549 1549 1549 1549 1548 1548 1547 1547 1547 1546 1545 1544 1543 1543 1542 1541 1541 1540 1538 1537 1534 1533 1533 1533 1533 1532 1531 1530 1529
1547 1547 1547 1547 1548 1548 1548 1549 1549 1549 1549 1550 1550 1550 1550 1550 1550 1550 1549 1549 1548 1548 1547 1547 1546 1545 1545 1544 1543 1542 1541 1540 1539 1538 1536 1535 1534 1534 1533 1532 1531 1530 1529
1548 1548 1549 1549 1549 1549 1550 1550 1550 1551 1551 1551 1551 1551 1551 1551 1551 1551 1550 1550 1549 1549 1548 1548 1547 1546 1546 1545 1544 1543 1542 1541 1540 1538 1537 1536 1535 1534 1533 1532 1531 1530 1529
1550 1550 1550 1550 1550 1551 1551 1551 1552 1552 1552 1552 1552 1552 1552 1552 1552 1552 1551 1551 1550 1550 1549 1548 1548 1547 1546 1546 1545 1544 1543 1541 1540 1539 1538 1537 1536 1535 1534 1533 1532 1531 1529
1551 1551 1551 1551 1552 1552 1552 1552 1553 1553 1553 1553 1553 1554 1554 1554 1554 1553 1553 1552 1552 1551 1550 1549 1549 1548 1547 1546 1545 1544 1543 1542 1541 1539 1538 1537 1536 1535 1534 1532 1532 1531 1530
1552 1552 1552 1552 1553 1553 1553 1553 1554 1554 1554 1555 1555 1555 1555 1555 1555 1555 1554 1554 1553 1552 1551 1551 1550 1549 1548 1547 1546 1545 1544 1542 1541 1540 1538 1537 1535 1534 1533 1532 1531 1531 1530
1553 1553 1553 1553 1553 1554 1554 1555 1555 1555 1556 1556 1556 1556 1557 1557 1556 1556 1555 1555 1554 1553 1552 1552 1551 1550 1549 1548 1547 1546 1544 1543 1541 1540 1538 1537 1535 1534 1533 1532 1531 1530 1530
1553 1553 1554 1554 1554 1555 1555 1556 1556 1556 1557 1557 1557 1557 1558 1559 1557 1557 1557 1556 1555 1555 1554 1553 1552 1551 1550 1549 1548 1546 1545 1543 1542 1540 1539 1537 1535 1533 1532 1531 1531 1530 1530
1554 1554 1554 1555 1555 1555 1556 1556 1557 1557 1557 1558 1558 1558 1558 1558 1558 1559 1558 1557 1556 1556 1555 1554 1553 1552 1551 1550 1548 1547 1545 1543 1542 1541 1539 1537 1535 1533 1532 1531 1530 1530 1530
1554 1554 1554 1555 1555 1556 1556 1557 1557 1557 1558 1558 1558 1558 1559 1558 1559 1559 1559 1558 1557 1557 1556 1555 1554 1553 1552 1550 1549 1548 1546 1544 1543 1541 1539 1538 1536 1534 1532 1531 1531 1531 1531
1554 1554 1554 1555 1555 1556 1556 1557 1557 1557 1558 1558 1558 1558 1558 1559 1559 1559 1559 1559 1558 1558 1557 1556 1555 1554 1553 1551 1550 1548 1547 1545 1543 1542 1540 1539 1537 1535 1534 1533 1532 1532 1531
1554 1554 1554 1555 1555 1556 1556 1557 1557 1557 1557 1558 1558 1558 1558 1559 1559 1559 1559 1558 1558 1558 1557 1557 1556 1555 1553 1552 1551 1550 1548 1546 1544 1543 1541 1540 1538 1537 1536 1535 1534 1533 1532
1553 1554 1554 1554 1555 1555 1556 1556 1557 1557 1557 1557 1558 1558 1558 1558 1559 1559 1559 1558 1558 1558 1558 1557 1556 1555 1554 1553 1552 1550 1549 1547 1545 1544 1542 1541 1539 1538 1537 1536 1535 1534 1533
1553 1554 1554 1554 1555 1555 1556 1556 1556 1556 1557 1557 1557 1557 1558 1558 1558 1559 1559 1559 1558 1558 1558 1558 1557 1556 1555 1554 1553 1551 1550 1548 1546 1545 1543 1542 1540 1539 1538 1536 1535 1534 1534
1553 1553 1554 1554 1555 1555 1555 1555 1555 1556 1556 1556 1557 1557 1557 1558 1558 1558 1559 1559 1559 1558 1558 1558 1557 1557 1556 1555 1553 1552 1550 1549 1547 1546 1544 1543 1541 1540 1539 1538 1536 1535 1534
1553 1553 1554 1554 1555 1555 1555 1555 1555 1555 1556 1556 1556 1557 1557 1557 1558 1558 1558 1558 1558 1559 1558 1558 1557 1557 1556 1555 1554 1552 1551 1550 1548 1547 1545 1544 1543 1541 1540 1539 1538 1536 1535
1552 1553 1553 1554 1554 1554 1555 1555 1555 1555 1555 1556 1556 1556 1556 1557 1557 1557 1558 1558 1558 1558 1557 1557 1557 1557 1556 1555 1554 1553 1552 1550 1549 1548 1546 1545 1544 1542 1541 1540 1539 1537 1536
1552 1552 1553 1553 1554 1554 1554 1554 1554 1555 1555 1555 1555 1556 1556 1556 1556 1557 1557 1557 1557 1557 1557 1557 1556 1556 1556 1555 1554 1553 1552 1551 1550 1549 1547 1546 1545 1543 1542 1541 1539 1538 1537
1551 1551 1552 1552 1553 1553 1553 1554 1554 1554 1554 1554 1555 1555 1555 1556 1556 1556 1556 1557 1557 1557 1557 1556 1556 1556 1555 1555 1554 1553 1552 1551 1550 1549 1548 1547 1545 1544 1543 1541 1540 1538 1537
1550 1550 1551 1551 1552 1552 1553 1553 1553 1553 1554 1554 1554 1555 1555 1555 1556 1556 1556 1556 1556 1556 1556 1556 1556 1555 1555 1555 1554 1553 1552 1552 1550 1549 1548 1547 1546 1544 1543 1541 1540 1538 1537
1548 1549 1550 1550 1551 1551 1552 1552 1552 1553 1553 1553 1553 1554 1554 1555 1555 1555 1556 1556 1556 1556 1556 1556 1555 1555 1554 1554 1554 1553 1552 1551 1550 1549 1548 1547 1546 1544 1543 1541 1540 1538 1536
1546 1547 1548 1549 1550 1550 1551 1551 1552 1552 1552 1552 1552 1553 1553 1554 1554 1555 1555 1555 1556 1556 1555 1555 1555 1554 1554 1554 1553 1552 1552 1551 1550 1550 1548 1547 1546 1544 1543 1541 1540 1538 1536
1544 1545 1546 1547 1548 1549 1549 1550 1550 1551 1551 1551 1552 1552 1552 1553 1553 1554 1554 1554 1554 1554 1555 1555 1554 1554 1553 1553 1552 1551 1551 1550 1549 1548 1547 1546 1545 1543 1542 1540 1539 1537 1536
1542 1543 1544 1545 1546 1547 1548 1548 1549 1549 1549 1550 1550 1551 1551 1552 1552 1553 1553 1553 1553 1553 1553 1553 1553 1553 1552 1552 1551 1551 1550 1549 1548 1547 1546 1544 1543 1542 1541 1539 1538 1536 1535
1539 1540 1542 1543 1544 1545 1546 1546 1547 1547 1548 1548 1548 1549 1550 1550 1551 1551 1552 1552 1552 1552 1552 1552 1552 1551 1551 1550 1550 1549 1548 1547 1546 1546 1545 1543 1542 1541 1539 1538 1536 1535 1533
1536 1537 1539 1540 1541 1542 1543 1544 1545 1545 1545 1546 1546 1547 1548 1548 1549 1549 1549 1550 1550 1550 1550 1550 1550 1549 1549 1548 1548 1547 1546 1546 1544 1544 1543 1542 1540 1539 1537 1536 1534 1533 1531